When you browse on this site, cookies collect data to enhance your experience and personalize the content and advertising you see.
Visit our Privacy Policy to learn more. By continuing to use the site, you agree to this use of cookies and data.
  • en France
  • Liste des pays
  • À 7 jours
  • Température de l'eau
  • Carte satellitaire
  • Carte météo
  • Widgets météo
  • user-avatar
    Se connecter

    Météo par heure à Pernik

    Ce jour, 22 Mars, Vendredi

    Heure Température Précipitation Vent Pression Humidité
    00:00 +5°C° 0 mm 1 m/s 699 mmHg 89%
    01:00 +5°C° 0 mm 1 m/s 699 mmHg 90%
    02:00 +4°C° 0 mm 1 m/s 699 mmHg 92%
    03:00 +4°C° 0 mm 1 m/s 699 mmHg 92%
    04:00 +4°C° 0 mm 1 m/s 699 mmHg 92%
    05:00 +4°C° 0 mm 1 m/s 699 mmHg 92%
    06:00 +4°C° 0 mm 1 m/s 699 mmHg 89%
    07:00 +5°C° 0 mm 1 m/s 699 mmHg 85%
    08:00 +6°C° 0 mm 1 m/s 700 mmHg 82%
    09:00 +7°C° 0 mm 1 m/s 700 mmHg 72%
    10:00 +8°C° 0 mm 2 m/s 700 mmHg 62%
    11:00 +10°C° 0 mm 2 m/s 700 mmHg 52%
    12:00 +12°C° 0 mm 2 m/s 699 mmHg 47%
    13:00 +13°C° 0 mm 2 m/s 699 mmHg 42%
    14:00 +13°C° 0 mm 3 m/s 699 mmHg 37%
    15:00 +13°C° 0 mm 3 m/s 698 mmHg 38%
    16:00 +13°C° 0 mm 3 m/s 698 mmHg 39%
    17:00 +13°C° 0 mm 3 m/s 697 mmHg 39%
    18:00 +11°C° 0 mm 3 m/s 697 mmHg 46%
    19:00 +10°C° 0 mm 2 m/s 697 mmHg 53%
    20:00 +8°C° 0 mm 2 m/s 697 mmHg 59%
    21:00 +7°C° 0 mm 2 m/s 697 mmHg 63%
    22:00 +8°C° 0 mm 1 m/s 697 mmHg 66%
    23:00 +7°C° 0 mm 1 m/s 697 mmHg 70%

    Demain, 23 Mars, Samedi

    Heure Température Précipitation Vent Pression Humidité
    00:00 +7°C° 0 mm 1 m/s 697 mmHg 71%
    01:00 +6°C° 0 mm 1 m/s 697 mmHg 73%
    02:00 +6°C° 0 mm 1 m/s 697 mmHg 74%
    03:00 +5°C° 0 mm 1 m/s 697 mmHg 75%
    04:00 +5°C° 0 mm 1 m/s 696 mmHg 75%
    05:00 +5°C° 0 mm 1 m/s 696 mmHg 76%
    06:00 +6°C° 0 mm 1 m/s 696 mmHg 72%
    07:00 +6°C° 0 mm 1 m/s 697 mmHg 69%
    08:00 +7°C° 0 mm 1 m/s 697 mmHg 65%
    09:00 +9°C° 0 mm 1 m/s 697 mmHg 58%
    10:00 +11°C° 0 mm 1 m/s 697 mmHg 51%
    11:00 +13°C° 0 mm 2 m/s 697 mmHg 44%
    12:00 +14°C° 0 mm 2 m/s 697 mmHg 41%
    13:00 +15°C° 0 mm 2 m/s 696 mmHg 39%
    14:00 +16°C° 0 mm 3 m/s 696 mmHg 36%
    15:00 +16°C° 0 mm 3 m/s 696 mmHg 37%
    16:00 +16°C° 0 mm 3 m/s 695 mmHg 37%
    17:00 +16°C° 0 mm 3 m/s 695 mmHg 38%
    18:00 +13°C° 0 mm 3 m/s 695 mmHg 44%
    19:00 +12°C° 0 mm 2 m/s 695 mmHg 51%
    20:00 +9°C° 0 mm 2 m/s 694 mmHg 58%
    21:00 +10°C° 0 mm 1 m/s 695 mmHg 62%
    22:00 +9°C° 0 mm 1 m/s 695 mmHg 66%
    23:00 +8°C° 0 mm 1 m/s 695 mmHg 69%

    Après-demain, 24 Mars, Dimanche

    Heure Température Précipitation Vent Pression Humidité
    00:00 +8°C° 0 mm 1 m/s 695 mmHg 72%
    01:00 +7°C° 0 mm 1 m/s 695 mmHg 75%
    02:00 +7°C° 0 mm 1 m/s 695 mmHg 78%
    03:00 +6°C° 0 mm 1 m/s 695 mmHg 80%
    04:00 +6°C° 0 mm 1 m/s 695 mmHg 82%
    05:00 +6°C° 0 mm 1 m/s 695 mmHg 83%
    06:00 +6°C° 0 mm 1 m/s 695 mmHg 80%
    07:00 +7°C° 0 mm 1 m/s 695 mmHg 77%
    08:00 +8°C° 0 mm 1 m/s 695 mmHg 73%
    09:00 +10°C° 0 mm 1 m/s 696 mmHg 64%
    10:00 +10°C° 0 mm 2 m/s 696 mmHg 54%
    11:00 +13°C° 0 mm 2 m/s 696 mmHg 45%
    12:00 +14°C° 0 mm 2 m/s 696 mmHg 41%
    13:00 +14°C° 0 mm 3 m/s 695 mmHg 37%
    14:00 +16°C° 0 mm 3 m/s 695 mmHg 33%
    15:00 +16°C° 0 mm 3 m/s 695 mmHg 33%
    16:00 +16°C° 0 mm 3 m/s 694 mmHg 34%
    17:00 +16°C° 0 mm 3 m/s 694 mmHg 35%
    18:00 +14°C° 0 mm 2 m/s 694 mmHg 40%
    19:00 +12°C° 0 mm 2 m/s 694 mmHg 46%
    20:00 +10°C° 0 mm 1 m/s 693 mmHg 52%
    21:00 +9°C° 0 mm 1 m/s 693 mmHg 55%
    22:00 +9°C° 0 mm 1 m/s 693 mmHg 57%
    23:00 +7°C° 0 mm 0 m/s 693 mmHg 60%

    25 Mars, Lundi

    Heure Température Précipitation Vent Pression Humidité
    00:00 +7°C° 0 mm 0 m/s 693 mmHg 61%
    01:00 +6°C° 0 mm 0 m/s 693 mmHg 62%
    02:00 +6°C° 0 mm 0 m/s 693 mmHg 64%
    03:00 +6°C° 0 mm 0 m/s 693 mmHg 64%
    04:00 +6°C° 0 mm 1 m/s 692 mmHg 65%
    05:00 +6°C° 0 mm 1 m/s 692 mmHg 65%
    06:00 +7°C° 0 mm 1 m/s 692 mmHg 61%
    07:00 +7°C° 0 mm 1 m/s 693 mmHg 58%
    08:00 +7°C° 0 mm 0 m/s 693 mmHg 54%
    09:00 +10°C° 0 mm 1 m/s 693 mmHg 51%
    10:00 +12°C° 0 mm 2 m/s 693 mmHg 48%
    11:00 +13°C° 0 mm 3 m/s 693 mmHg 45%
    12:00 +14°C° 0 mm 3 m/s 693 mmHg 43%
    13:00 +16°C° 0 mm 3 m/s 692 mmHg 41%
    14:00 +17°C° 0 mm 4 m/s 692 mmHg 39%
    15:00 +15°C° 0.1 mm 4 m/s 692 mmHg 42%
    16:00 +14°C° 0.1 mm 4 m/s 691 mmHg 45%
    17:00 +14°C° 0.1 mm 4 m/s 691 mmHg 47%
    18:00 +12°C° 0.1 mm 3 m/s 691 mmHg 54%
    19:00 +10°C° 0.1 mm 3 m/s 691 mmHg 60%
    20:00 +9°C° 0.1 mm 2 m/s 691 mmHg 67%
    21:00 +8°C° 0 mm 2 m/s 691 mmHg 69%
    22:00 +7°C° 0 mm 2 m/s 691 mmHg 71%
    23:00 +8°C° 0 mm 1 m/s 691 mmHg 73%

    26 Mars, Mardi

    Heure Température Précipitation Vent Pression Humidité
    00:00 +7°C° 0 mm 1 m/s 691 mmHg 74%
    01:00 +6°C° 0 mm 1 m/s 691 mmHg 76%
    02:00 +6°C° 0 mm 1 m/s 691 mmHg 77%
    03:00 +6°C° 0.2 mm 1 m/s 691 mmHg 76%
    04:00 +5°C° 0.2 mm 2 m/s 691 mmHg 76%
    05:00 +5°C° 0.2 mm 2 m/s 691 mmHg 75%
    06:00 +5°C° 0.1 mm 2 m/s 691 mmHg 70%
    07:00 +4°C° 0.1 mm 3 m/s 691 mmHg 65%
    08:00 +4°C° 0.1 mm 4 m/s 692 mmHg 60%
    09:00 +3°C° 0 mm 5 m/s 692 mmHg 56%
    10:00 +5°C° 0 mm 5 m/s 692 mmHg 51%
    11:00 +5°C° 0 mm 5 m/s 692 mmHg 47%
    12:00 +5°C° 0 mm 6 m/s 692 mmHg 45%
    13:00 +5°C° 0 mm 6 m/s 691 mmHg 43%
    14:00 +5°C° 0 mm 7 m/s 691 mmHg 41%
    15:00 +5°C° 0 mm 7 m/s 691 mmHg 40%
    16:00 +4°C° 0 mm 6 m/s 690 mmHg 39%
    17:00 +4°C° 0 mm 6 m/s 690 mmHg 38%
    18:00 +2°C° 0 mm 5 m/s 690 mmHg 44%
    19:00 +1°C° 0 mm 4 m/s 691 mmHg 49%
    20:00 0°C° 0 mm 4 m/s 691 mmHg 54%
    21:00 0°C° 0 mm 3 m/s 691 mmHg 58%
    22:00 -1°C° 0 mm 3 m/s 691 mmHg 62%
    23:00 -1°C° 0 mm 2 m/s 691 mmHg 66%

    27 Mars, Mercredi

    Heure Température Précipitation Vent Pression Humidité
    00:00 -1°C° 0 mm 2 m/s 691 mmHg 68%
    01:00 -2°C° 0 mm 2 m/s 691 mmHg 71%
    02:00 -2°C° 0 mm 2 m/s 691 mmHg 74%
    03:00 -2°C° 0.2 mm 3 m/s 691 mmHg 76%
    04:00 -3°C° 0.2 mm 4 m/s 691 mmHg 78%
    05:00 -3°C° 0.2 mm 4 m/s 691 mmHg 80%
    06:00 -2°C° 0.3 mm 5 m/s 692 mmHg 78%
    07:00 -2°C° 0.3 mm 5 m/s 692 mmHg 77%
    08:00 -2°C° 0.3 mm 5 m/s 692 mmHg 76%
    09:00 -3°C° 0.4 mm 6 m/s 692 mmHg 75%
    10:00 -2°C° 0.4 mm 6 m/s 693 mmHg 75%
    11:00 -2°C° 0.4 mm 6 m/s 693 mmHg 74%
    12:00 -1°C° 0.2 mm 6 m/s 693 mmHg 72%
    13:00 -1°C° 0.2 mm 6 m/s 693 mmHg 69%
    14:00 +1°C° 0.2 mm 6 m/s 694 mmHg 66%
    15:00 +1°C° 0 mm 6 m/s 694 mmHg 66%
    16:00 +2°C° 0 mm 5 m/s 694 mmHg 65%
    17:00 +2°C° 0 mm 5 m/s 694 mmHg 64%
    18:00 +1°C° 0 mm 4 m/s 694 mmHg 70%
    19:00 +1°C° 0 mm 3 m/s 695 mmHg 75%
    20:00 +1°C° 0 mm 2 m/s 695 mmHg 81%
    21:00 -1°C° 0 mm 2 m/s 695 mmHg 81%
    22:00 -1°C° 0 mm 2 m/s 696 mmHg 81%
    23:00 -2°C° 0 mm 2 m/s 696 mmHg 81%
    Voir plus